TimeAKDT,TemperatureF,Dew PointF,Humidity,Sea Level PressureIn,VisibilityMPH,Wind Direction,Wind SpeedMPH,Gust SpeedMPH,PrecipitationIn,Events,Conditions,WindDirDegrees,DateUTC
12:53 AM,37.9,36.0,93,30.11,10.0,Calm,Calm,-,N/A,,Clear,0,2012-10-10 08:53:00
1:53 AM,36.0,35.1,97,30.11,10.0,Calm,Calm,-,N/A,,Clear,0,2012-10-10 09:53:00
2:53 AM,35.1,34.0,96,30.11,10.0,Calm,Calm,-,N/A,,Partly Cloudy,0,2012-10-10 10:53:00
3:53 AM,36.0,35.1,97,30.09,10.0,Calm,Calm,-,N/A,,Overcast,0,2012-10-10 11:53:00
4:53 AM,36.0,35.1,97,30.08,10.0,Calm,Calm,-,N/A,,Mostly Cloudy,0,2012-10-10 12:53:00
5:53 AM,37.9,37.0,97,30.06,10.0,Calm,Calm,-,N/A,,Overcast,0,2012-10-10 13:53:00
6:53 AM,37.9,37.0,97,30.06,10.0,East,3.5,-,N/A,,Overcast,90,2012-10-10 14:53:00
7:53 AM,37.9,37.0,97,30.05,10.0,Calm,Calm,-,N/A,,Overcast,0,2012-10-10 15:53:00
8:53 AM,36.0,36.0,100,30.05,10.0,Calm,Calm,-,N/A,,Clear,0,2012-10-10 16:53:00
9:53 AM,37.0,36.0,96,30.05,10.0,Calm,Calm,-,N/A,,Clear,0,2012-10-10 17:53:00
10:53 AM,43.0,37.9,82,30.05,10.0,Calm,Calm,-,N/A,,Scattered Clouds,0,2012-10-10 18:53:00
11:53 AM,48.0,32.0,54,30.05,10.0,Calm,Calm,-,N/A,,Clear,0,2012-10-10 19:53:00
12:53 PM,51.1,30.9,46,30.04,10.0,Variable,4.6,-,N/A,,Clear,0,2012-10-10 20:53:00
1:53 PM,53.1,23.0,31,30.04,10.0,North,8.1,-,N/A,,Clear,360,2012-10-10 21:53:00
2:53 PM,53.1,21.0,29,30.04,10.0,NNE,12.7,19.6,N/A,,Clear,20,2012-10-10 22:53:00
3:53 PM,53.1,21.9,30,30.04,10.0,NNE,15.0,23.0,N/A,,Clear,30,2012-10-10 23:53:00
4:53 PM,52.0,21.9,31,30.04,10.0,NNE,12.7,-,N/A,,Clear,20,2012-10-11 00:53:00
5:53 PM,50.0,19.9,31,30.03,10.0,North,11.5,19.6,N/A,,Clear,10,2012-10-11 01:53:00
6:53 PM,46.9,24.1,41,30.03,10.0,NNE,11.5,23.0,N/A,,Clear,20,2012-10-11 02:53:00
7:53 PM,44.1,23.0,43,30.03,10.0,North,12.7,21.9,N/A,,Clear,360,2012-10-11 03:53:00
8:53 PM,43.0,21.9,43,30.03,10.0,North,9.2,20.7,N/A,,Clear,360,2012-10-11 04:53:00
9:53 PM,43.0,21.9,43,30.01,10.0,North,10.4,19.6,N/A,,Clear,360,2012-10-11 05:53:00
10:53 PM,42.1,21.9,45,30.00,10.0,North,10.4,17.3,N/A,,Clear,10,2012-10-11 06:53:00
11:53 PM,41.0,21.0,45,29.99,10.0,North,9.2,18.4,N/A,,Clear,360,2012-10-11 07:53:00